PARASOL

导读 | 星芒AI

PARASOL(Polarization and Anisotropy of Reflectances for Atmospheric Sciences using Observations from a Liquid crystal polarimeter)是法国国家空间研究中心(CNES)发射的一颗地球观测卫星,主要用于研究大气中的气溶胶和云层特性。它搭载高精度偏振仪,能够测量太阳光在大气中的反射和散射情况,从而提供关于气溶胶分布、光学特性及云微物理参数的重要数据。PARASOL 与 A-Train 卫星编队协同工作,为气候研究和大气环境监测提供关键支持。

基本信息
目录编号:
28498
目录名称:
PARASOL
国际标识:
2004-049G
轨道中心:
EARTH
卫星名称:
PARASOL
卫星全名:
--
卫星状态:
在轨 (已飞行7665 天)
发射日期:
2004-12-18 UTC
国别 :
法国 (FR)
星等 :
--
轨道信息
数据来源 国际轨道数据 AOE轨道数据
星历时间 2025-12-13T08:09:38+0800
9小时前
查看轨道信息
2025-12-08T06:00:00+0800
5天前
查看轨道信息
半长轴 7025.833km 7025.897km
偏心率 0.0013158 0.0013281
轨道倾角 98.498° 98.497°
近地点辐角 253.414° 270.518°
升交点赤经 164.609° 159.272°
平近点角 106.563° 92.378°
近地点 638.453km 638.43km
远地点 656.943km 657.094km
周期 97.680分钟 97.682分钟
每日圈数 14.741988 14.741787
详细信息
使用方式:
暂无
2D轨道图
3D轨道图
轨道高度分析图
轨道倾角分析图
轨道综合分析图
查看轨道综合分析图